UPS114 OJAI-OERK

Flight info

Callsign UPS114
Flight time 1h 2m
Altitude 33000
Route KULDI N318 TAMRO T503 METNI
Aircraft A306/H-SDE3FGHIRWY/LB1

Departure

Time 2026-04-29 15:30
Airport Queen Alia International Airport (OJAI)

Arrival

Time 2026-04-29 16:33
Airport King Khalid International Airport (OERK)
Time Latitude Longitude Altitude Speed Heading
2026-04-29 15:04 31.72204 36.00021 2383 ft 0 kts 351°
2026-04-29 15:19 31.72190 36.00024 2388 ft 2 kts 352°
2026-04-29 15:19 31.72174 36.00026 2387 ft 2 kts 354°
2026-04-29 15:19 31.72157 36.00028 2389 ft 2 kts
2026-04-29 15:19 31.72141 36.00024 2388 ft 2 kts 16°
2026-04-29 15:20 31.72125 36.00018 2387 ft 2 kts 21°
2026-04-29 15:20 31.72110 36.00011 2387 ft 2 kts 19°
2026-04-29 15:20 31.72094 36.00006 2387 ft 2 kts
2026-04-29 15:20 31.72077 36.00004 2385 ft 2 kts 356°
2026-04-29 15:21 31.72061 36.00007 2387 ft 2 kts 352°
2026-04-29 15:21 31.72045 36.00008 2383 ft 2 kts
2026-04-29 15:21 31.72028 36.00003 2379 ft 2 kts 20°
2026-04-29 15:21 31.72013 35.99996 2381 ft 2 kts 40°
2026-04-29 15:22 31.72004 35.99980 2388 ft 2 kts 66°
2026-04-29 15:22 31.71996 35.99963 2379 ft 2 kts 63°
2026-04-29 15:22 31.71991 35.99945 2384 ft 2 kts 84°
2026-04-29 15:22 31.71990 35.99930 2383 ft 1 kts 81°
2026-04-29 15:23 31.71990 35.99928 2384 ft 0 kts 81°
2026-04-29 15:24 31.71990 35.99930 2383 ft 2 kts 81°
2026-04-29 15:24 31.71998 35.99989 2379 ft 12 kts 81°
2026-04-29 15:24 31.72018 36.00121 2381 ft 21 kts 80°
2026-04-29 15:25 31.72049 36.00318 2380 ft 28 kts 79°
2026-04-29 15:25 31.72094 36.00571 2380 ft 35 kts 77°
2026-04-29 15:25 31.72124 36.00847 2381 ft 33 kts 81°
2026-04-29 15:25 31.72159 36.01099 2382 ft 30 kts 79°
2026-04-29 15:26 31.72192 36.01328 2382 ft 27 kts 81°
2026-04-29 15:26 31.72223 36.01535 2382 ft 25 kts 80°
2026-04-29 15:26 31.72244 36.01723 2382 ft 21 kts 97°
2026-04-29 15:26 31.72155 36.01803 2382 ft 15 kts 171°
2026-04-29 15:27 31.72128 36.01808 2382 ft 0 kts 171°
2026-04-29 15:28 31.72106 36.01812 2382 ft 6 kts 171°
2026-04-29 15:29 31.72043 36.01824 2383 ft 12 kts 171°
2026-04-29 15:29 31.71960 36.01657 2383 ft 26 kts 260°
2026-04-29 15:30 31.71761 36.00289 2377 ft 139 kts 261°
2026-04-29 15:30 31.71574 35.98965 2381 ft 189 kts 262°
2026-04-29 15:30 31.71356 35.97378 2927 ft 201 kts 262°
2026-04-29 15:30 31.71138 35.95665 3579 ft 218 kts 264°
2026-04-29 15:31 31.70926 35.93941 4659 ft 209 kts 264°
2026-04-29 15:31 31.70777 35.92821 5285 ft 213 kts 261°
2026-04-29 15:31 31.70030 35.91223 5739 ft 240 kts 224°
2026-04-29 15:31 31.68536 35.90369 6544 ft 242 kts 190°
2026-04-29 15:32 31.66873 35.90543 7352 ft 244 kts 161°
2026-04-29 15:32 31.65166 35.92322 8150 ft 261 kts 125°
2026-04-29 15:32 31.64514 35.93515 8821 ft 251 kts 125°
2026-04-29 15:32 31.63637 35.95185 10017 ft 237 kts 124°
2026-04-29 15:33 31.62713 35.96967 9799 ft 272 kts 124°
2026-04-29 15:33 31.61697 35.98904 9196 ft 281 kts 124°
2026-04-29 15:33 31.60652 36.00875 8953 ft 287 kts 124°
2026-04-29 15:33 31.59587 36.02872 9359 ft 291 kts 124°
2026-04-29 15:34 31.58514 36.04895 10153 ft 292 kts 124°
2026-04-29 15:34 31.57421 36.06958 10622 ft 307 kts 124°
2026-04-29 15:34 31.56267 36.09112 10897 ft 325 kts 124°
2026-04-29 15:34 31.55025 36.11410 11169 ft 342 kts 124°
2026-04-29 15:35 31.53701 36.13809 11442 ft 358 kts 125°
2026-04-29 15:35 31.52306 36.16298 11708 ft 373 kts 125°
2026-04-29 15:35 31.50856 36.18874 12116 ft 382 kts 125°
2026-04-29 15:35 31.49385 36.21492 12645 ft 387 kts 125°
2026-04-29 15:36 31.47898 36.24146 13201 ft 392 kts 124°
2026-04-29 15:36 31.46394 36.26834 13741 ft 397 kts 124°
2026-04-29 15:36 31.44874 36.29550 14273 ft 400 kts 124°
2026-04-29 15:36 31.43341 36.32288 14783 ft 404 kts 124°
2026-04-29 15:37 31.41793 36.35051 15309 ft 407 kts 124°
2026-04-29 15:37 31.40234 36.37832 15854 ft 410 kts 124°
2026-04-29 15:37 31.38662 36.40633 16408 ft 413 kts 124°
2026-04-29 15:37 31.37078 36.43453 16956 ft 416 kts 124°
2026-04-29 15:38 31.35481 36.46295 17482 ft 420 kts 124°
2026-04-29 15:38 31.33868 36.49167 18011 ft 423 kts 124°
2026-04-29 15:38 31.32431 36.52188 18489 ft 427 kts 115°
2026-04-29 15:38 31.31439 36.55480 18897 ft 432 kts 104°
2026-04-29 15:39 31.30378 36.65067 20117 ft 439 kts 94°
2026-04-29 15:39 31.29436 36.79488 21803 ft 449 kts 95°
2026-04-29 15:39 31.28340 36.94032 23343 ft 460 kts 95°
2026-04-29 15:39 31.27196 37.09120 24507 ft 472 kts 95°
2026-04-29 15:40 31.25872 37.24591 25544 ft 484 kts 101°
2026-04-29 15:40 31.21728 37.36494 26313 ft 493 kts 114°
2026-04-29 15:40 31.20570 37.40293 26496 ft 498 kts 108°
2026-04-29 15:40 31.19560 37.44177 26647 ft 503 kts 107°
2026-04-29 15:41 31.18556 37.48107 26831 ft 506 kts 107°
2026-04-29 15:41 31.17004 37.53857 27152 ft 510 kts 109°
2026-04-29 15:41 31.14701 37.61733 27596 ft 514 kts 110°
2026-04-29 15:41 31.12304 37.69612 28129 ft 515 kts 110°
2026-04-29 15:42 31.09890 37.77502 28696 ft 517 kts 110°
2026-04-29 15:42 31.07471 37.85411 29266 ft 517 kts 110°
2026-04-29 15:42 31.05049 37.93324 29850 ft 518 kts 110°
2026-04-29 15:42 31.02654 38.01133 30345 ft 519 kts 111°
2026-04-29 15:43 31.00214 38.09066 30792 ft 519 kts 111°
2026-04-29 15:43 30.97773 38.16982 30984 ft 517 kts 111°
2026-04-29 15:43 30.95370 38.24763 30996 ft 505 kts 111°
2026-04-29 15:44 30.90590 38.40165 31002 ft 506 kts 111°
2026-04-29 15:44 30.85785 38.55577 31008 ft 506 kts 111°
2026-04-29 15:45 30.80964 38.70972 31011 ft 506 kts 112°
2026-04-29 15:45 30.75290 38.85906 31018 ft 504 kts 119°
2026-04-29 15:46 30.69016 39.00496 31022 ft 505 kts 119°
2026-04-29 15:46 30.62734 39.15072 31028 ft 505 kts 119°
2026-04-29 15:47 30.56433 39.29645 31034 ft 505 kts 119°
2026-04-29 15:47 30.50148 39.44122 31043 ft 505 kts 120°
2026-04-29 15:48 30.43811 39.58662 31046 ft 505 kts 120°
2026-04-29 15:48 30.36306 39.72204 31047 ft 499 kts 129°
2026-04-29 15:49 30.28017 39.85113 31044 ft 500 kts 131°
2026-04-29 15:49 30.19685 39.97985 31064 ft 500 kts 130°
2026-04-29 15:50 30.11340 40.10871 31050 ft 500 kts 131°
2026-04-29 15:50 30.02982 40.23732 31041 ft 501 kts 131°
2026-04-29 15:51 29.94617 40.36570 31039 ft 501 kts 131°
2026-04-29 15:51 29.86219 40.49421 31037 ft 501 kts 131°
2026-04-29 15:52 29.77803 40.62260 31035 ft 503 kts 131°
2026-04-29 15:52 29.70293 40.75829 31036 ft 507 kts 126°
2026-04-29 15:53 29.62860 40.89638 31035 ft 508 kts 126°
2026-04-29 15:53 29.55387 41.03444 31025 ft 508 kts 127°
2026-04-29 15:54 29.47898 41.17229 31022 ft 509 kts 127°
2026-04-29 15:54 29.40382 41.31023 31020 ft 509 kts 127°
2026-04-29 15:55 29.32852 41.44793 31015 ft 510 kts 127°
2026-04-29 15:55 29.25310 41.58549 31007 ft 510 kts 128°
2026-04-29 15:56 29.17736 41.72315 31002 ft 510 kts 128°
2026-04-29 15:56 29.10150 41.86058 30997 ft 511 kts 128°
2026-04-29 15:57 29.02678 41.99548 30995 ft 510 kts 128°
2026-04-29 15:57 28.95045 42.13273 30993 ft 511 kts 128°
2026-04-29 15:58 28.87409 42.26963 30977 ft 511 kts 129°
2026-04-29 15:58 28.79768 42.40619 30968 ft 510 kts 129°
2026-04-29 15:59 28.72113 42.54252 30959 ft 510 kts 129°
2026-04-29 15:59 28.64385 42.67786 30950 ft 505 kts 135°
2026-04-29 15:59 28.60136 42.72254 30953 ft 486 kts 150°
2026-04-29 16:00 28.57525 42.74723 30956 ft 489 kts 148°
2026-04-29 16:00 28.52383 42.79727 30948 ft 490 kts 148°
2026-04-29 16:01 28.47230 42.84795 30952 ft 490 kts 148°
2026-04-29 16:01 28.42068 42.89864 30960 ft 490 kts 148°
2026-04-29 16:02 28.35515 42.96275 30950 ft 490 kts 148°
2026-04-29 16:02 28.25164 43.06375 30940 ft 490 kts 148°
2026-04-29 16:03 28.14825 43.16437 30941 ft 490 kts 148°
2026-04-29 16:03 28.04474 43.26482 30938 ft 489 kts 148°
2026-04-29 16:04 27.94123 43.36502 30939 ft 490 kts 149°
2026-04-29 16:04 27.83749 43.46517 30942 ft 491 kts 149°
2026-04-29 16:05 27.73356 43.56525 30940 ft 491 kts 149°
2026-04-29 16:05 27.62938 43.66530 30942 ft 492 kts 149°
2026-04-29 16:06 27.52559 43.76474 30939 ft 493 kts 149°
2026-04-29 16:06 27.42082 43.86484 30949 ft 493 kts 149°
2026-04-29 16:07 27.31613 43.96463 30948 ft 493 kts 149°
2026-04-29 16:07 27.21166 44.06395 30952 ft 492 kts 149°
2026-04-29 16:08 27.10709 44.16311 30954 ft 491 kts 149°
2026-04-29 16:08 27.00280 44.26172 30953 ft 490 kts 149°
2026-04-29 16:09 26.89853 44.36012 30950 ft 489 kts 149°
2026-04-29 16:09 26.79509 44.45746 30956 ft 488 kts 150°
2026-04-29 16:10 26.69115 44.55502 30966 ft 487 kts 149°
2026-04-29 16:10 26.58730 44.65228 30960 ft 487 kts 149°
2026-04-29 16:11 26.48339 44.74933 30968 ft 487 kts 149°
2026-04-29 16:11 26.37954 44.84612 30969 ft 486 kts 150°
2026-04-29 16:12 26.27562 44.94273 30966 ft 486 kts 150°
2026-04-29 16:12 26.17175 45.03904 30976 ft 488 kts 149°
2026-04-29 16:13 26.06624 45.13664 30965 ft 495 kts 149°
2026-04-29 16:13 25.96116 45.23365 30968 ft 493 kts 149°
2026-04-29 16:13 25.90919 45.28166 30571 ft 476 kts 150°
2026-04-29 16:14 25.87068 45.31706 29445 ft 477 kts 150°
2026-04-29 16:14 25.84537 45.34035 29092 ft 468 kts 150°
2026-04-29 16:14 25.82040 45.36331 28484 ft 465 kts 149°
2026-04-29 16:14 25.79557 45.38609 27899 ft 461 kts 149°
2026-04-29 16:15 25.77095 45.40870 27389 ft 457 kts 149°
2026-04-29 16:15 25.74663 45.43103 26677 ft 451 kts 149°
2026-04-29 16:15 25.72255 45.45312 25929 ft 445 kts 149°
2026-04-29 16:15 25.69885 45.47484 25178 ft 440 kts 149°
2026-04-29 16:16 25.67541 45.49632 24551 ft 433 kts 149°
2026-04-29 16:16 25.65236 45.51744 23982 ft 426 kts 148°
2026-04-29 16:16 25.62966 45.53822 23400 ft 420 kts 148°
2026-04-29 16:16 25.60762 45.55839 22795 ft 413 kts 148°
2026-04-29 16:17 25.58569 45.57845 22254 ft 404 kts 148°
2026-04-29 16:17 25.56422 45.59808 21744 ft 397 kts 148°
2026-04-29 16:17 25.54291 45.61750 21228 ft 397 kts 148°
2026-04-29 16:17 25.52158 45.63693 20713 ft 397 kts 148°
2026-04-29 16:18 25.50026 45.65634 20190 ft 397 kts 148°
2026-04-29 16:18 25.47892 45.67578 19685 ft 397 kts 148°
2026-04-29 16:18 25.46481 45.68864 19341 ft 397 kts 148°
2026-04-29 16:18 25.44346 45.70808 18819 ft 398 kts 147°
2026-04-29 16:19 25.42216 45.72749 18297 ft 394 kts 147°
2026-04-29 16:19 25.40133 45.74652 17764 ft 383 kts 147°
2026-04-29 16:19 25.38113 45.76496 17291 ft 371 kts 147°
2026-04-29 16:19 25.36211 45.78400 16831 ft 369 kts 138°
2026-04-29 16:20 25.34794 45.80782 16307 ft 373 kts 123°
2026-04-29 16:20 25.33678 45.83354 15839 ft 369 kts 120°
2026-04-29 16:20 25.32610 45.85921 15448 ft 366 kts 120°
2026-04-29 16:20 25.31566 45.88430 15180 ft 351 kts 120°
2026-04-29 16:21 25.30557 45.90844 14669 ft 342 kts 120°
2026-04-29 16:21 25.29559 45.93210 14082 ft 337 kts 120°
2026-04-29 16:21 25.28572 45.95538 13438 ft 333 kts 120°
2026-04-29 16:21 25.27598 45.97834 12847 ft 326 kts 120°
2026-04-29 16:22 25.26641 46.00087 12240 ft 321 kts 120°
2026-04-29 16:22 25.25698 46.02305 11610 ft 316 kts 120°
2026-04-29 16:22 25.24769 46.04485 10994 ft 312 kts 119°
2026-04-29 16:22 25.23852 46.06640 10416 ft 307 kts 118°
2026-04-29 16:23 25.22950 46.08758 9832 ft 302 kts 118°
2026-04-29 16:23 25.22063 46.10840 9185 ft 298 kts 118°
2026-04-29 16:23 25.21184 46.12900 8553 ft 294 kts 117°
2026-04-29 16:23 25.20327 46.14911 8058 ft 293 kts 117°
2026-04-29 16:24 25.19467 46.16927 7785 ft 288 kts 117°
2026-04-29 16:24 25.18617 46.18920 7454 ft 286 kts 117°
2026-04-29 16:24 25.17772 46.20895 7152 ft 283 kts 117°
2026-04-29 16:24 25.16936 46.22854 6884 ft 280 kts 116°
2026-04-29 16:25 25.16111 46.24788 6563 ft 278 kts 116°
2026-04-29 16:25 25.15290 46.26706 6280 ft 275 kts 116°
2026-04-29 16:25 25.14476 46.28607 6040 ft 273 kts 116°
2026-04-29 16:25 25.13665 46.30505 6014 ft 274 kts 116°
2026-04-29 16:26 25.12851 46.32411 6008 ft 275 kts 116°
2026-04-29 16:26 25.12033 46.34318 6011 ft 275 kts 116°
2026-04-29 16:26 25.11219 46.36221 6007 ft 275 kts 115°
2026-04-29 16:26 25.10636 46.38229 6000 ft 277 kts 98°
2026-04-29 16:27 25.10798 46.40346 6009 ft 280 kts 75°
2026-04-29 16:27 25.11471 46.42372 5860 ft 282 kts 69°
2026-04-29 16:27 25.12233 46.44374 5496 ft 279 kts 68°
2026-04-29 16:27 25.12974 46.46301 5292 ft 266 kts 69°
2026-04-29 16:28 25.13663 46.48114 5144 ft 253 kts 69°
2026-04-29 16:28 25.14322 46.49861 5007 ft 240 kts 69°
2026-04-29 16:28 25.14935 46.51498 5006 ft 234 kts 69°
2026-04-29 16:28 25.15467 46.53178 5029 ft 229 kts 81°
2026-04-29 16:29 25.15396 46.54902 5009 ft 226 kts 110°
2026-04-29 16:29 25.14538 46.56318 5001 ft 224 kts 140°
2026-04-29 16:29 25.13254 46.57286 5007 ft 225 kts 150°
2026-04-29 16:29 25.11895 46.58146 5000 ft 226 kts 151°
2026-04-29 16:30 25.10528 46.59002 4998 ft 226 kts 152°
2026-04-29 16:30 25.09139 46.59818 4803 ft 225 kts 152°
2026-04-29 16:30 25.07787 46.60669 4487 ft 223 kts 150°
2026-04-29 16:30 25.06460 46.61524 4174 ft 217 kts 150°
2026-04-29 16:31 25.05188 46.62330 3909 ft 212 kts 149°
2026-04-29 16:31 25.03929 46.63126 3641 ft 204 kts 148°
2026-04-29 16:31 25.02726 46.63891 3384 ft 196 kts 148°
2026-04-29 16:31 25.01531 46.64623 2987 ft 197 kts 148°
2026-04-29 16:32 25.00362 46.65361 2774 ft 187 kts 146°
2026-04-29 16:32 24.99310 46.66080 2689 ft 169 kts 147°
2026-04-29 16:32 24.98334 46.66700 2460 ft 156 kts 147°
2026-04-29 16:32 24.97404 46.67293 2130 ft 155 kts 148°
2026-04-29 16:33 24.95853 46.68278 2040 ft 65 kts 150°
2026-04-29 16:33 24.95596 46.68456 2039 ft 40 kts 136°
2026-04-29 16:33 24.95496 46.68708 2041 ft 33 kts 72°
2026-04-29 16:34 24.95591 46.68916 2042 ft 29 kts 63°
2026-04-29 16:34 24.95689 46.69100 2038 ft 26 kts 55°
2026-04-29 16:34 24.95722 46.69271 2040 ft 22 kts 103°
2026-04-29 16:34 24.95688 46.69424 2038 ft 16 kts 113°
2026-04-29 16:35 24.95637 46.69448 2040 ft 6 kts 174°
2026-04-29 16:35 24.95585 46.69457 2040 ft 10 kts 168°
2026-04-29 16:35 24.95522 46.69496 2038 ft 13 kts 147°
2026-04-29 16:35 24.95421 46.69563 2038 ft 20 kts 152°
2026-04-29 16:36 24.95276 46.69553 2043 ft 23 kts 194°
2026-04-29 16:36 24.95170 46.69453 2038 ft 19 kts 240°
2026-04-29 16:36 24.95109 46.69334 2039 ft 17 kts 241°
2026-04-29 16:36 24.95056 46.69228 2041 ft 15 kts 241°
2026-04-29 16:37 24.95042 46.69135 2040 ft 9 kts 311°
2026-04-29 16:37 24.95085 46.69102 2038 ft 8 kts 326°
2026-04-29 16:37 24.95157 46.69054 2037 ft 16 kts 330°
2026-04-29 16:37 24.95233 46.69006 2039 ft 22 kts 331°
2026-04-29 16:38 24.95447 46.68872 2036 ft 31 kts 330°
2026-04-29 16:38 24.95650 46.68744 2039 ft 36 kts 330°
2026-04-29 16:38 24.95886 46.68597 2043 ft 40 kts 331°
2026-04-29 16:38 24.96052 46.68505 2038 ft 13 kts
2026-04-29 16:39 24.96099 46.68570 2038 ft 15 kts 61°
2026-04-29 16:39 24.96169 46.68706 2042 ft 25 kts 60°
2026-04-29 16:39 24.96269 46.68896 2046 ft 32 kts 60°
2026-04-29 16:39 24.96391 46.69124 2053 ft 38 kts 59°
2026-04-29 16:40 24.96535 46.69398 2054 ft 44 kts 59°
2026-04-29 16:40 24.96688 46.69684 2044 ft 43 kts 60°
2026-04-29 16:40 24.96837 46.69967 2038 ft 36 kts 61°
2026-04-29 16:40 24.96920 46.70022 2039 ft 12 kts 340°
2026-04-29 16:41 24.97000 46.69979 2038 ft 16 kts 332°
2026-04-29 16:41 24.97119 46.69904 2035 ft 23 kts 330°
2026-04-29 16:41 24.97276 46.69803 2038 ft 29 kts 329°
2026-04-29 16:41 24.97451 46.69709 2042 ft 26 kts 335°
2026-04-29 16:42 24.97571 46.69635 2040 ft 6 kts 329°
2026-04-29 16:42 24.97572 46.69632 2040 ft 1 kts 311°
2026-04-29 16:42 24.97567 46.69604 2041 ft 8 kts 255°
2026-04-29 16:42 24.97528 46.69524 2035 ft 13 kts 238°
2026-04-29 16:43 24.97523 46.69515 2039 ft 0 kts 238°